Погода в Барде

Погода в Барде : погода сейчас, прогноз погоды и архив. Всё, что Вы хотите узнать о погоде в Барде!

Поиск расширенной информации на нашем сайте:

Другие новости

Новости СМИ2

Главная страница сайта

Новости сайта

02.10.2013

Напоминаем, что на нашем новом сайте вы можете получить высокодетализированные прогнозы погоды по пунктам России, СНГ и мира (включающие важные для авиации метеовеличины, такие как направление и скорость ветра, видимость, явления погоды, количество и форма облачности, нижняя и верхняя граница облачности), а также ознакомиться с разнообразными материалами по авиационной метеорологии и подборкой полезных ссылок на эту тему.

Сайт Метеоцентр.Азия посвящён разработке технологий оптимизации авиаметеорологического обслуживания, включая проектирование и перспективное создание нескольких автоматизированных авиаметеорологических систем:
- система выпуска высокодетальных прогностических карт явлений погоды для нижнего воздушного пространства по России и ближнему зарубежью;
- система верификации прогнозов TAF (выпускаемых синоптиками официальных АМСГ РФ и ближнего зарубежья) и AUTOTAF (выпускаемых сайтом Метеоцентр.Азия) - выявление ошибок, онлайн-сопоставление с фактической погодой METAR, автоматическое внесение коррективов в прогнозы при резком отклонении фактической погоды от прогноза, подсчёт оправдываемости прогнозов по элементам и в целом;
- система обработки, анализа и отображения авиаметеорологической информации для применения провайдерами метеорологической информации.


Погода в Барде - сегодня

Время (UTC), дата Ветер
(°,м/с) 
Видим.   Явления Облачность Т
(°С)
Тd
(°С)
f(%) Тe
(°С)
Pmin
(гПа)
dP
(гПа)
Po
(мм)
O2
(г/м3)
Тmin Tmax R s Состояние
почвы
00 23.03.17 300 (СЗ) 10 км    ясно 
+4.9 +0.5 73 +6  1019  0.5  758  300           
03 23.03.17 320 (СЗ) 10 км    4/4 600 м 
[Cu med, cong]
+3.5 +1.7 88 +4  1020.7  1.7  759  302           
06 23.03.17 360 (С) 20000 м    4/4 600 м 
[Cu med, cong]
+8.3 +0.6 58 +9  1021.6  760  297           
09 23.03.17 360 (С) 20000 м    ясно 
+13.7 +0 39 +15  1020.1  -1.4  759  291           
12 23.03.17 120 (ЮВ) 20000 м    3/3 600 м 
[Cu med, cong]
+16.4 +0.9 35 +18  1019  -1  758  288           
15 23.03.17 180 (Ю) 20000 м    3/0 средняя 
[Ac trans]
+13.5 +5.1 57 +15  1018.6  -0.5  758  290           
18 23.03.17 120 (ЮВ) 10 км    ясно 
+9.4 +5 74 +10  1022.4  3.7  761  295    +17.1       
21 23.03.17 190 (Ю) 10 км    ясно 
+5.9 +3.8 86 +7  1024.5  762  300           
00 24.03.17 090 (В) 10 км    10/0 средняя 
[As op]
+6.8 +5.5 91 +8  1025.3  0.7  763  299           
03 24.03.17 090 (В) 10 км    10/0 средняя 
[As op]
+7.3 +6.2 93 +8  1025.8  0.6  763  298           
06 24.03.17 120 (ЮВ) 20000 м    10/0 средняя 
[As op]
+8 +5.8 86 +9  1026.8  764  298           
09 24.03.17 120 (ЮВ) 20000 м    9/9 600 м 
[Cu med, cong]
+11.3 +5.5 67 +12  1026.9  0.2  764  295           
12 24.03.17 120 (ЮВ) 20000 м    9/9 600 м 
[Cu med, cong]
+11.2 +5.3 67 +12  1025.8  -1.1  763  295           
18 24.03.17 180 (Ю) 10 км    9/9 600 м 
[Cu med, cong]
+8.5 +5.1 79 +10  1028.4  2.6  765  298    +12.1       
21 24.03.17 160 (Ю) 10 км    6/6 600 м 
[Cu med, cong]
+4.9 +3.7 92 +6  1027.5  -1  764  302           
00 25.03.17 160 (Ю) 10 км    10/0 средняя 
[As op]
+5.1 +4.4 95 +6  1026.7  -0.8  764  301           
03 25.03.17 160 (Ю) 10 км    10/0 средняя 
[As op]
+4.9 +4.2 95 +6  1026.4  -0.3  763  302           
06 25.03.17 150 (ЮВ) 20000 м    10/0 средняя 
[As op]
+6.7 +4.1 83 +7  1025.3  -1.1  763  299           
09 25.03.17 260 (З) 20000 м    10/10 600 м 
[Frnb|Ns]
+8.9 +4.1 72 +10  1024.2  -1  762  297           
12 25.03.17 260 (З) 20000 м    6/6 600 м 
[Cu med, cong]
+11.7 +5 63 +13  1021.3  -2.8  760  293           
15 25.03.17 тихо ()   20000 м    ясно 
+11.7 +5.9 68 +12  1018.1  -3.2  757  292           
18 25.03.17 120 (ЮВ) 10 км    ясно 
+6.9 +4.4 84 +8  1018.7  0.4  758  297    +12.1       
21 25.03.17 тихо ()   10 км    10/0 средняя 
[As op]
+5.1 +3.9 92 +5  1018.7  758  299           
00 26.03.17 тихо ()   10 км    9/9 600 м 
[Cu med, cong]
+6.1 +5 93 +6  1018.8  0.1  758  298           
03 26.03.17 290 (З) 20000 м    ясно 
+2.5 +1.5 93 +3  1018.7  -0.1  758  302           
Время (UTC), дата Ветер
(°,м/с) 
Видим.   Явления Облачность Т
(°С)
Тd
(°С)
f(%) Тe
(°С)
Pmin
(гПа)
dP
(гПа)
Po
(мм)
O2
(г/м3)
Тmin Tmax R s Состояние
почвы

Для получения пояснительной информации подведите курсор к названию столбца.

ПОГОДА в Барде - архив

Всё, что Вы хотите узнать о погоде в Барде - удобно и подробно!

Выберите нужную дату (начиная с 1 января 2015* года) и нажмите кнопку "Найти".
Будут отображены архивные сводки погоды по пункту Барда, начиная с указанной даты.


Отображать данные в формате CSV (для использования в таблицах Excel)


Внимание! Наш архив погоды предназначен исключительно для личного некоммерческого использования в познавательных целях. Если Вам необходимы официальные справки о состоянии погоды (для производственных, юридических, коммерческих и т.п. целей), обращайтесь в органы Росгидромета.

*Примечание: данная дата относится к архиву по метеостанциям СССР (Россия, СНГ, Балтия).
Архив по метеостанциям Зарубежной Европы и Азии (кроме Китая) хранится 10 дней, по другим регионам земного шара (Китай, Африка, Америка, Австралия, Океания) - 1 день.

Барда - район местоположения метеостанции


Название, широта, долгота, высота метеостанции:
Барда 40.4°ш. 47.1°д. 69 м над ур. моря [Азербайджан]

Дополнительная информация

В oтличие oт бoльшинства пoгoдных сайтoв мы публикуем пoдрoбную метеoинфoрмацию в детальнoм прoфессиoнальнoм фoрмате.

Характеристики температуры и влажнoсти вoздуха измеряются на высoте 2 м в тени вдали oт зданий и деревьев.
Скoрoсть ветра измеряется на высoте 10 м (на урoвне рoста челoвека скoрoсть ветра ниже в 1.5-2 раза). Если метеoстанция нахoдится в гoрoде или в лесу, тo скoрoсть ветра занижена на 2-4 м/с пo сравнению с oткрытым местoм. Скoрoсть ветра над акватoриями крупных рек и oзёр, а также на вершинах хoлмoв на 2-5 м/с выше, чем в oбычных услoвиях.
Атмoсфернoе давление в разных тoчках местнoсти мoжет значительнo oтличаться oт давления на метеoстанции, в зависимoсти oт услoвий рельефа (при пoдъёме на 10 м давление пoнижается примернo на 1 мм рт.ст.).